Location: Caltech
(34.1382°N, 118.1253°W)
Time: 05:13:13
(UTC-08:00)

AO-7 - Visible Passes

Search period start: 01 February 2015 00:00
Search period end: 11 February 2015 00:00
Orbit: 1440 x 1458 km, 101.5° (Epoch: 30 January)

Date Brightness Start Highest point End Pass type
(mag) Time Alt. Az. Time Alt. Az. Time Alt. Az.
01 Feb ? 02:20:19 10° ENE 02:22:26 11° E 02:25:24 10° ESE visible
01 Feb ? 04:08:17 10° NNE 04:16:39 79° ESE 04:24:57 10° SSW visible
01 Feb ? 06:02:49 10° NNW 06:08:40 21° WNW 06:14:10 10° W visible
02 Feb ? 03:09:18 10° NE 03:16:23 32° E 03:23:38 10° SSE visible
02 Feb ? 05:01:29 10° N 05:09:26 50° WNW 05:17:16 10° SW visible
03 Feb ? 04:01:23 10° NNE 04:09:42 72° ESE 04:17:58 10° S visible
03 Feb ? 05:55:37 10° N 06:01:51 23° WNW 06:07:44 10° WSW visible
04 Feb ? 03:02:36 10° NE 03:09:22 28° E 03:16:21 10° SSE visible
04 Feb ? 04:54:29 10° N 05:02:33 55° WNW 05:10:30 10° SW visible
05 Feb ? 03:54:30 10° NNE 04:02:45 65° ESE 04:10:58 10° S visible
05 Feb ? 05:48:28 10° N 05:55:01 26° WNW 06:01:15 10° WSW visible
06 Feb ? 02:55:56 10° NE 03:02:20 25° E 03:09:01 10° SSE visible
06 Feb ? 04:47:29 10° N 04:55:39 61° WNW 05:03:43 10° SW visible
07 Feb ? 03:47:38 10° NNE 03:55:48 59° ESE 04:03:56 10° S visible
07 Feb ? 05:41:20 10° N 05:48:09 28° WNW 05:54:43 10° WSW visible
08 Feb ? 02:49:20 10° NE 02:55:17 23° E 03:01:36 10° SE visible
08 Feb ? 04:40:31 10° N 04:48:45 67° WNW 04:56:54 10° SSW visible
09 Feb ? 03:40:47 10° NNE 03:48:50 53° ESE 03:56:53 10° S visible
09 Feb ? 05:34:14 10° N 05:41:18 31° WNW 05:48:09 10° WSW visible
10 Feb ? 02:42:47 10° NE 02:48:14 20° E 02:54:08 10° SE visible
10 Feb ? 04:33:33 10° NNE 04:41:50 73° WNW 04:50:04 10° SSW visible
